Time,TemperatureF,DewpointF,PressureIn,WindDirection,WindDirectionDegrees,WindSpeedMPH,WindSpeedGustMPH,Humidity,HourlyPrecipIn,Conditions,Clouds,dailyrainin,SoftwareType,DateUTC
2013-03-16 00:00:00,47.0,41.1,29.78,NW,325,0.0,1.0,80,0.00,,,0.00,Wunderground v.1.15,2013-03-16 04:00:00,
2013-03-16 00:02:00,47.0,41.1,29.78,NW,325,0.0,1.0,80,0.00,,,0.00,Wunderground v.1.15,2013-03-16 04:02:00,
2013-03-16 00:04:00,47.0,41.1,29.79,NW,325,0.0,1.0,80,0.00,,,0.00,Wunderground v.1.15,2013-03-16 04:04:00,
2013-03-16 00:09:00,46.9,41.1,29.79,NW,325,0.0,1.0,80,0.00,,,0.00,Wunderground v.1.15,2013-03-16 04:09:00,
2013-03-16 00:15:00,46.8,41.0,29.79,NW,325,1.0,1.0,80,0.00,,,0.00,Wunderground v.1.15,2013-03-16 04:15:00,
2013-03-16 00:20:00,46.7,41.2,29.78,NW,325,0.0,0.0,81,0.00,,,0.00,Wunderground v.1.15,2013-03-16 04:20:00,
2013-03-16 00:25:00,46.5,41.0,29.78,NW,325,1.0,1.0,81,0.00,,,0.00,Wunderground v.1.15,2013-03-16 04:25:00,
2013-03-16 00:30:00,46.4,40.9,29.78,NW,325,0.0,0.0,81,0.00,,,0.00,Wunderground v.1.15,2013-03-16 04:30:00,
2013-03-16 00:35:00,46.4,40.9,29.78,NW,325,1.0,1.0,81,0.00,,,0.00,Wunderground v.1.15,2013-03-16 04:35:00,
2013-03-16 00:41:00,46.3,40.5,29.78,NW,325,0.0,0.0,80,0.00,,,0.00,Wunderground v.1.15,2013-03-16 04:41:00,
2013-03-16 00:46:00,46.4,40.6,29.78,NW,325,0.0,0.0,80,0.00,,,0.00,Wunderground v.1.15,2013-03-16 04:46:00,
2013-03-16 00:52:00,46.4,40.6,29.78,NW,325,0.0,0.0,80,0.00,,,0.00,Wunderground v.1.15,2013-03-16 04:52:00,
2013-03-16 00:58:00,46.4,40.6,29.78,NW,325,0.0,0.0,80,0.00,,,0.00,Wunderground v.1.15,2013-03-16 04:58:00,
2013-03-16 01:04:00,46.3,40.5,29.78,NW,325,0.0,0.0,80,0.00,,,0.00,Wunderground v.1.15,2013-03-16 05:04:00,
2013-03-16 01:10:00,46.4,40.6,29.78,NW,325,0.0,0.0,80,0.00,,,0.00,Wunderground v.1.15,2013-03-16 05:10:00,
2013-03-16 01:15:00,46.4,40.9,29.78,NW,325,0.0,0.0,81,0.00,,,0.00,Wunderground v.1.15,2013-03-16 05:15:00,
2013-03-16 01:20:00,46.4,40.9,29.78,NW,325,1.0,1.0,81,0.00,,,0.00,Wunderground v.1.15,2013-03-16 05:20:00,
2013-03-16 01:25:00,46.4,40.9,29.78,NW,325,0.0,1.0,81,0.00,,,0.00,Wunderground v.1.15,2013-03-16 05:25:00,
2013-03-16 01:30:00,46.4,40.9,29.78,NW,325,0.0,0.0,81,0.00,,,0.00,Wunderground v.1.15,2013-03-16 05:30:00,
2013-03-16 01:35:00,46.3,40.8,29.78,NW,325,0.0,0.0,81,0.00,,,0.00,Wunderground v.1.15,2013-03-16 05:35:00,
2013-03-16 01:41:00,46.1,40.9,29.78,NW,325,0.0,0.0,82,0.00,,,0.00,Wunderground v.1.15,2013-03-16 05:41:00,
2013-03-16 01:47:00,45.9,41.0,29.78,NW,325,2.0,2.0,83,0.00,,,0.00,Wunderground v.1.15,2013-03-16 05:47:00,
2013-03-16 01:52:00,45.7,40.5,29.78,NW,325,2.0,3.0,82,0.00,,,0.00,Wunderground v.1.15,2013-03-16 05:52:00,
2013-03-16 01:58:00,45.6,40.7,29.78,NW,325,2.0,3.0,83,0.00,,,0.00,Wunderground v.1.15,2013-03-16 05:58:00,
2013-03-16 02:03:00,45.6,40.7,29.77,NW,325,0.0,2.0,83,0.00,,,0.00,Wunderground v.1.15,2013-03-16 06:03:00,
2013-03-16 02:08:00,45.6,40.7,29.77,NW,325,0.0,2.0,83,0.00,,,0.00,Wunderground v.1.15,2013-03-16 06:08:00,
2013-03-16 02:13:00,45.5,40.3,29.77,NW,325,0.0,0.0,82,0.00,,,0.00,Wunderground v.1.15,2013-03-16 06:13:00,
2013-03-16 02:18:00,45.4,40.2,29.77,NW,325,0.0,0.0,82,0.00,,,0.00,Wunderground v.1.15,2013-03-16 06:18:00,
2013-03-16 02:23:00,45.3,39.8,29.77,NW,325,0.0,0.0,81,0.00,,,0.00,Wunderground v.1.15,2013-03-16 06:23:00,
2013-03-16 02:28:00,45.2,39.7,29.77,NW,325,0.0,0.0,81,0.00,,,0.00,Wunderground v.1.15,2013-03-16 06:28:00,
2013-03-16 02:33:00,45.1,39.6,29.77,NW,325,0.0,0.0,81,0.00,,,0.00,Wunderground v.1.15,2013-03-16 06:33:00,
2013-03-16 02:38:00,45.0,39.5,29.77,NW,325,0.0,0.0,81,0.00,,,0.00,Wunderground v.1.15,2013-03-16 06:38:00,
2013-03-16 02:43:00,45.0,39.5,29.77,NW,325,0.0,0.0,81,0.00,,,0.00,Wunderground v.1.15,2013-03-16 06:43:00,
2013-03-16 02:48:00,44.9,39.7,29.77,NW,325,0.0,0.0,82,0.00,,,0.00,Wunderground v.1.15,2013-03-16 06:48:00,
2013-03-16 02:53:00,44.8,39.6,29.77,NW,325,0.0,0.0,82,0.00,,,0.00,Wunderground v.1.15,2013-03-16 06:53:00,
2013-03-16 02:58:00,44.8,39.6,29.77,NW,325,0.0,0.0,82,0.00,,,0.00,Wunderground v.1.15,2013-03-16 06:58:00,
2013-03-16 03:03:00,44.9,39.4,29.77,NW,325,0.0,1.0,81,0.00,,,0.00,Wunderground v.1.15,2013-03-16 07:03:00,
2013-03-16 03:08:00,44.9,39.4,29.77,NW,325,0.0,1.0,81,0.00,,,0.00,Wunderground v.1.15,2013-03-16 07:08:00,
2013-03-16 03:13:00,45.0,39.5,29.77,NW,325,0.0,1.0,81,0.00,,,0.00,Wunderground v.1.15,2013-03-16 07:13:00,
2013-03-16 03:18:00,45.0,39.5,29.77,NW,325,0.0,2.0,81,0.00,,,0.00,Wunderground v.1.15,2013-03-16 07:18:00,
2013-03-16 03:23:00,45.1,39.3,29.77,NW,325,3.0,3.0,80,0.00,,,0.00,Wunderground v.1.15,2013-03-16 07:23:00,
2013-03-16 03:28:00,45.4,39.3,29.77,NW,325,2.0,3.0,79,0.00,,,0.00,Wunderground v.1.15,2013-03-16 07:28:00,
2013-03-16 03:33:00,45.7,39.6,29.77,NW,325,2.0,4.0,79,0.00,,,0.00,Wunderground v.1.15,2013-03-16 07:33:00,
2013-03-16 03:38:00,46.1,40.3,29.77,NW,323,5.0,5.0,80,0.00,,,0.00,Wunderground v.1.15,2013-03-16 07:38:00,
2013-03-16 03:43:00,46.2,41.0,29.78,WNW,283,4.0,5.0,82,0.00,,,0.00,Wunderground v.1.15,2013-03-16 07:43:00,
2013-03-16 03:48:00,46.1,41.2,29.78,West,277,2.0,6.0,83,0.00,,,0.00,Wunderground v.1.15,2013-03-16 07:48:00,
2013-03-16 03:53:00,46.1,41.5,29.77,West,277,0.0,4.0,84,0.00,,,0.00,Wunderground v.1.15,2013-03-16 07:53:00,
2013-03-16 03:58:00,46.0,41.4,29.77,West,277,0.0,4.0,84,0.00,,,0.00,Wunderground v.1.15,2013-03-16 07:58:00,
2013-03-16 04:03:00,45.9,41.3,29.77,West,277,1.0,1.0,84,0.00,,,0.00,Wunderground v.1.15,2013-03-16 08:03:00,
2013-03-16 04:08:00,45.7,41.1,29.76,West,277,1.0,2.0,84,0.00,,,0.00,Wunderground v.1.15,2013-03-16 08:08:00,
2013-03-16 04:13:00,45.6,41.4,29.76,West,277,0.0,2.0,85,0.00,,,0.00,Wunderground v.1.15,2013-03-16 08:13:00,
2013-03-16 04:18:00,45.6,41.7,29.77,West,277,0.0,2.0,86,0.00,,,0.00,Wunderground v.1.15,2013-03-16 08:18:00,
2013-03-16 04:23:00,45.4,41.2,29.77,West,277,0.0,0.0,85,0.00,,,0.00,Wunderground v.1.15,2013-03-16 08:23:00,
2013-03-16 04:28:00,45.3,40.7,29.76,West,277,0.0,0.0,84,0.00,,,0.00,Wunderground v.1.15,2013-03-16 08:28:00,
2013-03-16 04:33:00,45.3,40.7,29.77,West,277,0.0,1.0,84,0.00,,,0.00,Wunderground v.1.15,2013-03-16 08:33:00,
2013-03-16 04:38:00,45.3,41.4,29.77,West,277,0.0,1.0,86,0.00,,,0.00,Wunderground v.1.15,2013-03-16 08:38:00,
2013-03-16 04:43:00,45.3,41.4,29.77,West,277,0.0,0.0,86,0.00,,,0.00,Wunderground v.1.15,2013-03-16 08:43:00,
2013-03-16 04:48:00,45.3,41.4,29.77,West,277,0.0,1.0,86,0.00,,,0.00,Wunderground v.1.15,2013-03-16 08:48:00,
2013-03-16 04:53:00,45.3,41.7,29.77,West,277,0.0,2.0,87,0.00,,,0.00,Wunderground v.1.15,2013-03-16 08:53:00,
2013-03-16 04:58:00,45.3,42.0,29.77,West,277,1.0,2.0,88,0.00,,,0.00,Wunderground v.1.15,2013-03-16 08:58:00,
2013-03-16 05:03:00,45.1,42.1,29.77,West,277,1.0,1.0,89,0.00,,,0.00,Wunderground v.1.15,2013-03-16 09:03:00,
2013-03-16 05:08:00,45.1,42.1,29.77,West,277,1.0,2.0,89,0.00,,,0.00,Wunderground v.1.15,2013-03-16 09:08:00,
2013-03-16 05:13:00,45.0,42.0,29.77,West,277,1.0,2.0,89,0.00,,,0.00,Wunderground v.1.15,2013-03-16 09:13:00,
2013-03-16 05:18:00,45.0,42.0,29.77,West,277,1.0,2.0,89,0.00,,,0.00,Wunderground v.1.15,2013-03-16 09:18:00,
2013-03-16 05:23:00,45.0,42.0,29.77,West,277,0.0,2.0,89,0.00,,,0.00,Wunderground v.1.15,2013-03-16 09:23:00,
2013-03-16 05:28:00,45.0,42.0,29.78,West,277,1.0,2.0,89,0.00,,,0.00,Wunderground v.1.15,2013-03-16 09:28:00,
2013-03-16 05:34:00,44.9,41.9,29.78,West,277,2.0,2.0,89,0.00,,,0.00,Wunderground v.1.15,2013-03-16 09:34:00,
2013-03-16 05:39:00,44.9,42.1,29.78,West,277,0.0,3.0,90,0.00,,,0.00,Wunderground v.1.15,2013-03-16 09:39:00,
2013-03-16 05:44:00,44.8,42.0,29.78,West,277,1.0,2.0,90,0.00,,,0.00,Wunderground v.1.15,2013-03-16 09:44:00,
2013-03-16 05:49:00,44.7,41.9,29.78,West,277,0.0,2.0,90,0.00,,,0.00,Wunderground v.1.15,2013-03-16 09:49:00,
2013-03-16 05:54:00,44.7,41.9,29.79,West,277,0.0,3.0,90,0.00,,,0.00,Wunderground v.1.15,2013-03-16 09:54:00,
2013-03-16 05:59:00,44.7,41.7,29.78,West,277,0.0,3.0,89,0.00,,,0.00,Wunderground v.1.15,2013-03-16 09:59:00,
2013-03-16 06:04:00,44.6,41.6,29.78,West,277,0.0,1.0,89,0.00,,,0.00,Wunderground v.1.15,2013-03-16 10:04:00,
2013-03-16 06:09:00,44.7,41.7,29.79,West,277,0.0,1.0,89,0.00,,,0.00,Wunderground v.1.15,2013-03-16 10:09:00,
2013-03-16 06:14:00,44.6,41.3,29.80,West,277,1.0,2.0,88,0.00,,,0.00,Wunderground v.1.15,2013-03-16 10:14:00,
2013-03-16 06:19:00,44.6,41.0,29.80,West,277,0.0,3.0,87,0.00,,,0.00,Wunderground v.1.15,2013-03-16 10:19:00,
2013-03-16 06:24:00,44.5,40.6,29.80,West,277,0.0,1.0,86,0.00,,,0.00,Wunderground v.1.15,2013-03-16 10:24:00,
2013-03-16 06:29:00,44.6,40.7,29.79,West,277,0.0,1.0,86,0.00,,,0.00,Wunderground v.1.15,2013-03-16 10:29:00,
2013-03-16 06:34:00,44.5,40.6,29.79,West,277,0.0,1.0,86,0.00,,,0.00,Wunderground v.1.15,2013-03-16 10:34:00,
2013-03-16 06:39:00,44.6,40.7,29.79,West,277,0.0,2.0,86,0.00,,,0.00,Wunderground v.1.15,2013-03-16 10:39:00,
2013-03-16 06:44:00,44.6,40.7,29.79,West,277,1.0,1.0,86,0.00,,,0.00,Wunderground v.1.15,2013-03-16 10:44:00,
2013-03-16 06:49:00,44.7,40.5,29.79,West,277,1.0,3.0,85,0.00,,,0.00,Wunderground v.1.15,2013-03-16 10:49:00,
2013-03-16 06:55:00,44.7,40.5,29.79,West,277,0.0,1.0,85,0.00,,,0.00,Wunderground v.1.15,2013-03-16 10:55:00,
2013-03-16 07:00:00,44.8,40.6,29.79,West,277,1.0,1.0,85,0.00,,,0.00,Wunderground v.1.15,2013-03-16 11:00:00,
2013-03-16 07:05:00,44.8,40.6,29.79,West,277,0.0,3.0,85,0.00,,,0.00,Wunderground v.1.15,2013-03-16 11:05:00,
2013-03-16 07:10:00,44.8,40.6,29.79,West,277,0.0,0.0,85,0.00,,,0.00,Wunderground v.1.15,2013-03-16 11:10:00,
2013-03-16 07:15:00,44.8,40.6,29.80,West,277,0.0,2.0,85,0.00,,,0.00,Wunderground v.1.15,2013-03-16 11:15:00,
2013-03-16 07:20:00,44.8,40.6,29.79,West,277,0.0,1.0,85,0.00,,,0.00,Wunderground v.1.15,2013-03-16 11:20:00,
2013-03-16 07:25:00,44.9,40.7,29.80,West,277,0.0,1.0,85,0.00,,,0.00,Wunderground v.1.15,2013-03-16 11:25:00,
2013-03-16 07:30:00,44.9,41.0,29.79,West,277,0.0,0.0,86,0.00,,,0.00,Wunderground v.1.15,2013-03-16 11:30:00,
2013-03-16 07:35:00,44.9,41.0,29.80,West,277,0.0,0.0,86,0.00,,,0.00,Wunderground v.1.15,2013-03-16 11:35:00,
2013-03-16 07:40:00,44.7,40.5,29.80,West,277,0.0,0.0,85,0.00,,,0.00,Wunderground v.1.15,2013-03-16 11:40:00,
2013-03-16 07:45:00,44.7,40.5,29.80,West,277,0.0,1.0,85,0.00,,,0.00,Wunderground v.1.15,2013-03-16 11:45:00,
2013-03-16 07:50:00,44.6,40.4,29.80,West,277,0.0,0.0,85,0.00,,,0.00,Wunderground v.1.15,2013-03-16 11:50:00,
2013-03-16 07:55:00,44.6,40.4,29.80,West,277,0.0,1.0,85,0.00,,,0.00,Wunderground v.1.15,2013-03-16 11:55:00,
2013-03-16 08:00:00,44.6,40.1,29.80,West,277,0.0,0.0,84,0.00,,,0.00,Wunderground v.1.15,2013-03-16 12:00:00,
2013-03-16 08:05:00,44.6,40.1,29.80,West,277,0.0,0.0,84,0.00,,,0.00,Wunderground v.1.15,2013-03-16 12:05:00,
2013-03-16 08:10:00,44.6,40.1,29.80,West,277,0.0,0.0,84,0.00,,,0.00,Wunderground v.1.15,2013-03-16 12:10:00,
2013-03-16 08:15:00,44.6,40.4,29.80,West,277,0.0,2.0,85,0.00,,,0.00,Wunderground v.1.15,2013-03-16 12:15:00,
2013-03-16 08:20:00,44.7,40.5,29.80,West,277,0.0,1.0,85,0.00,,,0.00,Wunderground v.1.15,2013-03-16 12:20:00,
2013-03-16 08:25:00,44.7,40.5,29.80,West,277,0.0,2.0,85,0.00,,,0.00,Wunderground v.1.15,2013-03-16 12:25:00,
2013-03-16 08:30:00,44.8,40.3,29.79,West,277,0.0,0.0,84,0.00,,,0.00,Wunderground v.1.15,2013-03-16 12:30:00,
2013-03-16 08:35:00,44.9,40.4,29.79,West,277,2.0,2.0,84,0.00,,,0.00,Wunderground v.1.15,2013-03-16 12:35:00,
2013-03-16 08:40:00,45.0,40.1,29.80,West,277,0.0,2.0,83,0.00,,,0.00,Wunderground v.1.15,2013-03-16 12:40:00,
2013-03-16 08:45:00,45.0,40.1,29.80,West,277,2.0,2.0,83,0.00,,,0.00,Wunderground v.1.15,2013-03-16 12:45:00,
2013-03-16 08:50:00,45.2,40.3,29.80,West,277,0.0,1.0,83,0.00,,,0.00,Wunderground v.1.15,2013-03-16 12:50:00,
2013-03-16 08:55:00,45.3,39.8,29.80,West,277,0.0,3.0,81,0.00,,,0.00,Wunderground v.1.15,2013-03-16 12:55:00,
2013-03-16 09:00:00,45.5,40.0,29.80,West,277,2.0,4.0,81,0.00,,,0.00,Wunderground v.1.15,2013-03-16 13:00:00,
2013-03-16 09:05:00,45.6,39.8,29.80,West,277,2.0,4.0,80,0.00,,,0.00,Wunderground v.1.15,2013-03-16 13:05:00,
2013-03-16 09:10:00,45.8,40.0,29.80,West,277,0.0,1.0,80,0.00,,,0.00,Wunderground v.1.15,2013-03-16 13:10:00,
2013-03-16 09:15:00,45.8,40.0,29.80,West,277,0.0,2.0,80,0.00,,,0.00,Wunderground v.1.15,2013-03-16 13:15:00,
2013-03-16 09:20:00,46.0,40.5,29.81,West,277,0.0,1.0,81,0.00,,,0.00,Wunderground v.1.15,2013-03-16 13:20:00,
2013-03-16 09:26:00,46.1,41.2,29.81,West,277,0.0,1.0,83,0.00,,,0.00,Wunderground v.1.15,2013-03-16 13:26:00,
2013-03-16 09:31:00,46.1,41.2,29.81,West,277,1.0,1.0,83,0.00,,,0.00,Wunderground v.1.15,2013-03-16 13:31:00,
2013-03-16 09:36:00,46.1,41.2,29.81,West,277,0.0,1.0,83,0.00,,,0.00,Wunderground v.1.15,2013-03-16 13:36:00,
2013-03-16 09:41:00,46.1,41.2,29.81,West,277,1.0,4.0,83,0.00,,,0.00,Wunderground v.1.15,2013-03-16 13:41:00,
2013-03-16 09:47:00,46.0,40.8,29.80,West,277,2.0,4.0,82,0.00,,,0.00,Wunderground v.1.15,2013-03-16 13:47:00,
2013-03-16 09:52:00,46.1,40.6,29.80,West,277,2.0,2.0,81,0.00,,,0.00,Wunderground v.1.15,2013-03-16 13:52:00,
2013-03-16 09:57:00,46.2,40.7,29.80,West,277,0.0,4.0,81,0.00,,,0.00,Wunderground v.1.15,2013-03-16 13:57:00,
2013-03-16 10:02:00,46.4,40.9,29.79,West,277,0.0,3.0,81,0.00,,,0.00,Wunderground v.1.15,2013-03-16 14:02:00,
2013-03-16 10:07:00,46.6,41.7,29.79,West,277,0.0,3.0,83,0.00,,,0.00,Wunderground v.1.15,2013-03-16 14:07:00,
2013-03-16 10:12:00,46.7,41.8,29.79,West,277,1.0,2.0,83,0.00,,,0.00,Wunderground v.1.15,2013-03-16 14:12:00,
2013-03-16 10:18:00,46.8,41.9,29.78,West,277,2.0,2.0,83,0.00,,,0.00,Wunderground v.1.15,2013-03-16 14:18:00,
2013-03-16 10:23:00,46.8,42.2,29.78,West,277,1.0,2.0,84,0.00,,,0.00,Wunderground v.1.15,2013-03-16 14:23:00,
2013-03-16 10:28:00,47.0,42.4,29.77,West,277,0.0,4.0,84,0.00,,,0.00,Wunderground v.1.15,2013-03-16 14:28:00,
2013-03-16 10:33:00,47.3,42.4,29.77,West,277,1.0,4.0,83,0.00,,,0.00,Wunderground v.1.15,2013-03-16 14:33:00,
2013-03-16 10:38:00,47.8,42.6,29.76,West,273,3.0,4.0,82,0.00,,,0.00,Wunderground v.1.15,2013-03-16 14:38:00,
2013-03-16 10:43:00,48.4,42.2,29.76,South,171,1.0,6.0,79,0.00,,,0.00,Wunderground v.1.15,2013-03-16 14:43:00,
2013-03-16 10:48:00,49.0,42.4,29.75,SSE,167,2.0,6.0,78,0.00,,,0.00,Wunderground v.1.15,2013-03-16 14:48:00,
2013-03-16 10:53:00,49.2,42.6,29.76,SSE,159,3.0,3.0,78,0.00,,,0.00,Wunderground v.1.15,2013-03-16 14:53:00,
2013-03-16 10:58:00,49.3,42.1,29.76,SSE,158,2.0,5.0,76,0.00,,,0.00,Wunderground v.1.15,2013-03-16 14:58:00,
2013-03-16 11:03:00,49.4,42.1,29.76,East,95,4.0,9.0,76,0.00,,,0.00,Wunderground v.1.15,2013-03-16 15:03:00,
2013-03-16 11:08:00,49.3,41.7,29.75,East,98,1.0,9.0,75,0.00,,,0.00,Wunderground v.1.15,2013-03-16 15:08:00,
2013-03-16 11:14:00,49.5,41.6,29.75,SE,146,5.0,6.0,74,0.00,,,0.00,Wunderground v.1.15,2013-03-16 15:14:00,
2013-03-16 11:19:00,49.6,41.7,29.74,ESE,105,3.0,8.0,74,0.00,,,0.00,Wunderground v.1.15,2013-03-16 15:19:00,
2013-03-16 11:24:00,49.9,41.9,29.74,SE,127,2.0,6.0,74,0.00,,,0.00,Wunderground v.1.15,2013-03-16 15:24:00,
2013-03-16 11:29:00,49.9,41.6,29.74,ESE,117,2.0,7.0,73,0.00,,,0.00,Wunderground v.1.15,2013-03-16 15:29:00,
2013-03-16 11:34:00,50.1,42.1,29.74,ESE,123,1.0,6.0,74,0.00,,,0.00,Wunderground v.1.15,2013-03-16 15:34:00,
2013-03-16 11:39:00,50.5,42.5,29.74,ESE,108,2.0,6.0,74,0.00,,,0.00,Wunderground v.1.15,2013-03-16 15:39:00,
2013-03-16 11:44:00,50.9,42.6,29.74,ESE,107,4.0,6.0,73,0.00,,,0.00,Wunderground v.1.15,2013-03-16 15:44:00,
2013-03-16 11:49:00,51.2,42.8,29.74,SE,142,4.0,7.0,73,0.00,,,0.00,Wunderground v.1.15,2013-03-16 15:49:00,
2013-03-16 11:54:00,51.2,42.5,29.74,ENE,69,3.0,9.0,72,0.00,,,0.00,Wunderground v.1.15,2013-03-16 15:54:00,
2013-03-16 11:59:00,51.3,42.9,29.74,SE,135,3.0,9.0,73,0.00,,,0.00,Wunderground v.1.15,2013-03-16 15:59:00,
2013-03-16 12:04:00,51.5,42.8,29.73,ESE,120,2.0,6.0,72,0.00,,,0.00,Wunderground v.1.15,2013-03-16 16:04:00,
2013-03-16 12:09:00,51.6,42.9,29.73,SE,136,1.0,6.0,72,0.00,,,0.00,Wunderground v.1.15,2013-03-16 16:09:00,
2013-03-16 12:14:00,51.9,43.2,29.72,SE,126,3.0,5.0,72,0.00,,,0.00,Wunderground v.1.15,2013-03-16 16:14:00,
2013-03-16 12:19:00,52.0,42.9,29.72,SE,136,5.0,6.0,71,0.00,,,0.00,Wunderground v.1.15,2013-03-16 16:19:00,
2013-03-16 12:24:00,52.2,43.4,29.70,SE,140,2.0,10.0,72,0.00,,,0.00,Wunderground v.1.15,2013-03-16 16:24:00,
2013-03-16 12:29:00,52.6,43.8,29.70,SSE,153,2.0,10.0,72,0.00,,,0.00,Wunderground v.1.15,2013-03-16 16:29:00,
2013-03-16 12:34:00,53.1,44.3,29.70,ESE,114,1.0,5.0,72,0.00,,,0.00,Wunderground v.1.15,2013-03-16 16:34:00,
2013-03-16 12:39:00,53.7,44.9,29.70,ESE,123,2.0,5.0,72,0.00,,,0.00,Wunderground v.1.15,2013-03-16 16:39:00,
2013-03-16 12:44:00,54.2,45.0,29.70,ESE,111,3.0,6.0,71,0.00,,,0.00,Wunderground v.1.15,2013-03-16 16:44:00,
2013-03-16 12:49:00,54.7,45.1,29.71,ESE,123,3.0,6.0,70,0.00,,,0.00,Wunderground v.1.15,2013-03-16 16:49:00,
2013-03-16 12:54:00,55.0,45.4,29.71,SE,132,4.0,6.0,70,0.00,,,0.00,Wunderground v.1.15,2013-03-16 16:54:00,
2013-03-16 12:59:00,54.4,45.6,29.71,SSE,168,3.0,7.0,72,0.00,,,0.00,Wunderground v.1.15,2013-03-16 16:59:00,
2013-03-16 13:04:00,54.2,46.1,29.71,South,187,3.0,7.0,74,0.00,,,0.00,Wunderground v.1.15,2013-03-16 17:04:00,
2013-03-16 13:09:00,53.7,44.5,29.72,South,187,3.0,7.0,71,0.00,,,0.00,Wunderground v.1.15,2013-03-16 17:09:00,
2013-03-16 13:14:00,53.1,44.3,29.71,South,187,1.0,4.0,72,0.00,,,0.00,Wunderground v.1.15,2013-03-16 17:14:00,
2013-03-16 13:19:00,52.9,44.8,29.71,South,187,3.0,4.0,74,0.00,,,0.00,Wunderground v.1.15,2013-03-16 17:19:00,
2013-03-16 13:24:00,52.7,44.6,29.70,South,187,2.0,3.0,74,0.00,,,0.00,Wunderground v.1.15,2013-03-16 17:24:00,
2013-03-16 13:29:00,52.5,44.4,29.70,South,187,2.0,3.0,74,0.00,,,0.00,Wunderground v.1.15,2013-03-16 17:29:00,
2013-03-16 13:34:00,51.9,43.9,29.70,South,187,2.0,3.0,74,0.00,,,0.00,Wunderground v.1.15,2013-03-16 17:34:00,
2013-03-16 13:39:00,51.3,43.6,29.70,South,187,2.0,3.0,75,0.00,,,0.00,Wunderground v.1.15,2013-03-16 17:39:00,
2013-03-16 13:44:00,50.8,43.8,29.70,South,187,0.0,3.0,77,0.00,,,0.00,Wunderground v.1.15,2013-03-16 17:44:00,
2013-03-16 13:49:00,50.5,43.9,29.70,South,187,0.0,3.0,78,0.00,,,0.00,Wunderground v.1.15,2013-03-16 17:49:00,
2013-03-16 13:54:00,50.4,44.1,29.69,South,187,0.0,1.0,79,0.00,,,0.00,Wunderground v.1.15,2013-03-16 17:54:00,
2013-03-16 13:59:00,50.3,44.0,29.68,South,187,0.0,0.0,79,0.00,,,0.00,Wunderground v.1.15,2013-03-16 17:59:00,
2013-03-16 14:04:00,50.1,43.8,29.67,South,187,4.0,7.0,79,0.00,,,0.00,Wunderground v.1.15,2013-03-16 18:04:00,
2013-03-16 14:09:00,50.1,44.5,29.67,South,186,2.0,3.0,81,0.00,,,0.00,Wunderground v.1.15,2013-03-16 18:09:00,
2013-03-16 14:14:00,50.4,44.8,29.66,SE,145,6.0,10.0,81,0.00,,,0.00,Wunderground v.1.15,2013-03-16 18:14:00,
2013-03-16 14:20:00,50.6,44.7,29.66,SSE,166,4.0,5.0,80,0.00,,,0.00,Wunderground v.1.15,2013-03-16 18:20:00,
2013-03-16 14:25:00,51.0,45.0,29.65,SSW,211,10.0,14.0,80,0.00,,,0.00,Wunderground v.1.15,2013-03-16 18:25:00,
2013-03-16 14:30:00,51.4,45.4,29.64,SSE,160,5.0,7.0,80,0.00,,,0.00,Wunderground v.1.15,2013-03-16 18:30:00,
2013-03-16 14:35:00,51.7,45.4,29.64,SSE,166,5.0,13.0,79,0.00,,,0.00,Wunderground v.1.15,2013-03-16 18:35:00,
2013-03-16 14:40:00,52.1,45.8,29.63,SSE,153,3.0,7.0,79,0.00,,,0.00,Wunderground v.1.15,2013-03-16 18:40:00,
2013-03-16 14:45:00,52.4,45.7,29.66,South,180,7.0,13.0,78,0.00,,,0.00,Wunderground v.1.15,2013-03-16 18:45:00,
2013-03-16 14:50:00,52.7,46.0,29.65,SSE,152,5.0,6.0,78,0.00,,,0.00,Wunderground v.1.15,2013-03-16 18:50:00,
2013-03-16 14:55:00,52.9,46.2,29.64,SSE,168,7.0,13.0,78,0.00,,,0.00,Wunderground v.1.15,2013-03-16 18:55:00,
2013-03-16 15:00:00,53.4,46.7,29.65,South,188,9.0,12.0,78,0.00,,,0.00,Wunderground v.1.15,2013-03-16 19:00:00,
2013-03-16 15:05:00,53.2,46.2,29.65,SSW,196,9.0,12.0,77,0.00,,,0.00,Wunderground v.1.15,2013-03-16 19:05:00,
2013-03-16 15:10:00,52.4,46.1,29.65,South,188,14.0,14.0,79,0.00,,,0.00,Wunderground v.1.15,2013-03-16 19:10:00,
2013-03-16 15:15:00,52.1,45.8,29.64,South,182,12.0,15.0,79,0.00,,,0.00,Wunderground v.1.15,2013-03-16 19:15:00,
2013-03-16 15:20:00,52.0,45.7,29.65,South,182,6.0,14.0,79,0.00,,,0.00,Wunderground v.1.15,2013-03-16 19:20:00,
2013-03-16 15:25:00,52.0,46.0,29.65,South,189,10.0,15.0,80,0.00,,,0.00,Wunderground v.1.15,2013-03-16 19:25:00,
2013-03-16 15:30:00,51.9,45.9,29.64,South,187,14.0,14.0,80,0.00,,,0.00,Wunderground v.1.15,2013-03-16 19:30:00,
2013-03-16 15:35:00,51.9,45.9,29.64,South,179,13.0,16.0,80,0.00,,,0.00,Wunderground v.1.15,2013-03-16 19:35:00,
2013-03-16 15:40:00,51.7,45.7,29.64,South,181,9.0,15.0,80,0.00,,,0.00,Wunderground v.1.15,2013-03-16 19:40:00,
2013-03-16 15:45:00,51.7,45.7,29.64,South,183,10.0,15.0,80,0.00,,,0.00,Wunderground v.1.15,2013-03-16 19:45:00,
2013-03-16 15:50:00,51.8,46.2,29.64,South,186,10.0,11.0,81,0.00,,,0.00,Wunderground v.1.15,2013-03-16 19:50:00,
2013-03-16 15:55:00,51.9,46.3,29.64,South,184,5.0,13.0,81,0.00,,,0.00,Wunderground v.1.15,2013-03-16 19:55:00,
2013-03-16 16:00:00,52.1,46.1,29.64,South,177,5.0,9.0,80,0.00,,,0.00,Wunderground v.1.15,2013-03-16 20:00:00,
2013-03-16 16:06:00,52.4,46.4,29.64,South,180,4.0,10.0,80,0.00,,,0.00,Wunderground v.1.15,2013-03-16 20:06:00,
2013-03-16 16:11:00,52.8,46.8,29.64,South,178,4.0,6.0,80,0.00,,,0.00,Wunderground v.1.15,2013-03-16 20:11:00,
2013-03-16 16:16:00,53.1,46.8,29.64,South,178,5.0,11.0,79,0.00,,,0.00,Wunderground v.1.15,2013-03-16 20:16:00,
2013-03-16 16:21:00,53.4,47.4,29.64,South,182,6.0,7.0,80,0.00,,,0.00,Wunderground v.1.15,2013-03-16 20:21:00,
2013-03-16 16:26:00,53.6,47.2,29.64,South,182,3.0,7.0,79,0.00,,,0.00,Wunderground v.1.15,2013-03-16 20:26:00,
2013-03-16 16:32:00,53.8,47.4,29.64,South,182,1.0,4.0,79,0.00,,,0.00,Wunderground v.1.15,2013-03-16 20:32:00,
2013-03-16 16:37:00,54.2,47.8,29.64,South,182,2.0,4.0,79,0.00,,,0.00,Wunderground v.1.15,2013-03-16 20:37:00,
2013-03-16 16:42:00,54.9,48.2,29.63,South,180,2.0,5.0,78,0.00,,,0.00,Wunderground v.1.15,2013-03-16 20:42:00,
2013-03-16 16:47:00,55.2,47.8,29.63,South,181,4.0,5.0,76,0.00,,,0.00,Wunderground v.1.15,2013-03-16 20:47:00,
2013-03-16 16:54:00,55.0,48.3,29.63,South,181,0.0,4.0,78,0.00,,,0.00,Wunderground v.1.15,2013-03-16 20:54:00,
2013-03-16 16:59:00,54.6,48.2,29.63,South,181,1.0,4.0,79,0.00,,,0.00,Wunderground v.1.15,2013-03-16 20:59:00,
2013-03-16 17:04:00,54.5,48.1,29.63,South,181,0.0,2.0,79,0.00,,,0.00,Wunderground v.1.15,2013-03-16 21:04:00,
2013-03-16 17:09:00,54.3,47.9,29.64,South,181,1.0,3.0,79,0.00,,,0.00,Wunderground v.1.15,2013-03-16 21:09:00,
2013-03-16 17:14:00,54.1,47.7,29.64,South,181,0.0,3.0,79,0.00,,,0.00,Wunderground v.1.15,2013-03-16 21:14:00,
2013-03-16 17:19:00,54.1,48.4,29.63,South,181,1.0,3.0,81,0.00,,,0.00,Wunderground v.1.15,2013-03-16 21:19:00,
2013-03-16 17:24:00,54.0,48.6,29.64,South,180,0.0,2.0,82,0.00,,,0.00,Wunderground v.1.15,2013-03-16 21:24:00,
2013-03-16 17:29:00,53.7,49.0,29.64,South,181,1.0,3.0,84,0.00,,,0.00,Wunderground v.1.15,2013-03-16 21:29:00,
2013-03-16 17:34:00,53.4,49.3,29.64,South,181,0.0,1.0,86,0.00,,,0.00,Wunderground v.1.15,2013-03-16 21:34:00,
2013-03-16 17:39:00,53.2,49.4,29.64,South,181,0.0,2.0,87,0.00,,,0.00,Wunderground v.1.15,2013-03-16 21:39:00,
2013-03-16 17:44:00,53.1,49.6,29.64,South,181,0.0,1.0,88,0.00,,,0.00,Wunderground v.1.15,2013-03-16 21:44:00,
2013-03-16 17:49:00,52.9,49.7,29.65,South,180,0.0,2.0,89,0.00,,,0.00,Wunderground v.1.15,2013-03-16 21:49:00,
2013-03-16 17:54:00,52.6,49.4,29.64,South,180,2.0,3.0,89,0.00,,,0.00,Wunderground v.1.15,2013-03-16 21:54:00,
2013-03-16 17:59:00,52.4,49.3,29.65,South,181,4.0,4.0,89,0.00,,,0.00,Wunderground v.1.15,2013-03-16 21:59:00,
2013-03-16 18:04:00,51.9,48.5,29.65,WSW,254,5.0,7.0,88,0.00,,,0.00,Wunderground v.1.15,2013-03-16 22:04:00,
2013-03-16 18:09:00,51.2,46.8,29.64,WSW,257,3.0,7.0,85,0.00,,,0.00,Wunderground v.1.15,2013-03-16 22:09:00,
2013-03-16 18:14:00,50.7,46.4,29.65,WSW,257,2.0,4.0,85,0.00,,,0.00,Wunderground v.1.15,2013-03-16 22:14:00,
2013-03-16 18:19:00,50.4,46.4,29.65,WSW,257,1.0,4.0,86,0.00,,,0.00,Wunderground v.1.15,2013-03-16 22:19:00,
2013-03-16 18:24:00,50.2,46.2,29.65,WSW,257,1.0,3.0,86,0.00,,,0.00,Wunderground v.1.15,2013-03-16 22:24:00,
2013-03-16 18:29:00,50.0,46.3,29.65,WSW,257,0.0,3.0,87,0.00,,,0.00,Wunderground v.1.15,2013-03-16 22:29:00,
2013-03-16 18:34:00,49.9,46.5,29.67,WSW,257,4.0,4.0,88,0.00,,,0.00,Wunderground v.1.15,2013-03-16 22:34:00,
2013-03-16 18:39:00,49.7,46.3,29.67,WNW,284,5.0,5.0,88,0.00,,,0.00,Wunderground v.1.15,2013-03-16 22:39:00,
2013-03-16 18:44:00,49.4,45.7,29.67,NE,44,5.0,9.0,87,0.00,,,0.01,Wunderground v.1.15,2013-03-16 22:44:00,
2013-03-16 18:49:00,49.1,44.8,29.68,NE,36,3.0,11.0,85,0.00,,,0.01,Wunderground v.1.15,2013-03-16 22:49:00,
2013-03-16 18:54:00,48.7,44.1,29.68,East,82,7.0,9.0,84,0.00,,,0.01,Wunderground v.1.15,2013-03-16 22:54:00,
2013-03-16 18:59:00,48.3,43.7,29.69,NE,53,7.0,10.0,84,0.00,,,0.01,Wunderground v.1.15,2013-03-16 22:59:00,
2013-03-16 19:04:00,48.0,43.4,29.70,ENE,75,2.0,10.0,84,0.00,,,0.01,Wunderground v.1.15,2013-03-16 23:04:00,
2013-03-16 19:09:00,47.7,43.4,29.70,ENE,65,5.0,10.0,85,0.00,,,0.01,Wunderground v.1.15,2013-03-16 23:09:00,
2013-03-16 19:14:00,47.5,43.2,29.71,East,85,3.0,9.0,85,0.00,,,0.01,Wunderground v.1.15,2013-03-16 23:14:00,
2013-03-16 19:19:00,47.3,43.0,29.70,ENE,67,2.0,9.0,85,0.00,,,0.01,Wunderground v.1.15,2013-03-16 23:19:00,
2013-03-16 19:24:00,47.2,42.9,29.71,NE,53,2.0,9.0,85,0.00,,,0.01,Wunderground v.1.15,2013-03-16 23:24:00,
2013-03-16 19:29:00,47.0,42.7,29.71,NE,53,2.0,9.0,85,0.00,,,0.01,Wunderground v.1.15,2013-03-16 23:29:00,
2013-03-16 19:34:00,46.9,42.6,29.71,NE,43,4.0,7.0,85,0.00,,,0.01,Wunderground v.1.15,2013-03-16 23:34:00,
2013-03-16 19:39:00,46.7,42.7,29.71,NE,50,4.0,10.0,86,0.00,,,0.01,Wunderground v.1.15,2013-03-16 23:39:00,
2013-03-16 19:44:00,46.5,42.5,29.73,NE,53,5.0,5.0,86,0.00,,,0.01,Wunderground v.1.15,2013-03-16 23:44:00,
2013-03-16 19:49:00,46.2,42.2,29.73,ENE,64,10.0,11.0,86,0.00,,,0.01,Wunderground v.1.15,2013-03-16 23:49:00,
2013-03-16 19:54:00,46.0,42.0,29.74,ENE,59,6.0,7.0,86,0.00,,,0.01,Wunderground v.1.15,2013-03-16 23:54:00,
2013-03-16 19:59:00,45.8,41.9,29.73,NE,40,1.0,4.0,86,0.00,,,0.01,Wunderground v.1.15,2013-03-16 23:59:00,
2013-03-16 20:04:00,45.6,41.7,29.74,NNE,33,4.0,7.0,86,0.00,,,0.01,Wunderground v.1.15,2013-03-17 00:04:00,
2013-03-16 20:10:00,45.4,41.5,29.75,NE,34,4.0,4.0,86,0.00,,,0.01,Wunderground v.1.15,2013-03-17 00:10:00,
2013-03-16 20:15:00,45.0,41.1,29.75,NNE,24,5.0,9.0,86,0.00,,,0.01,Wunderground v.1.15,2013-03-17 00:15:00,
2013-03-16 20:20:00,44.8,40.6,29.76,NE,40,3.0,5.0,85,0.00,,,0.01,Wunderground v.1.15,2013-03-17 00:20:00,
2013-03-16 20:25:00,44.6,40.4,29.76,NNE,24,3.0,7.0,85,0.00,,,0.01,Wunderground v.1.15,2013-03-17 00:25:00,
2013-03-16 20:30:00,44.4,40.2,29.77,North,11,9.0,9.0,85,0.00,,,0.01,Wunderground v.1.15,2013-03-17 00:30:00,
2013-03-16 20:35:00,44.3,40.1,29.77,ENE,74,5.0,9.0,85,0.00,,,0.01,Wunderground v.1.15,2013-03-17 00:35:00,
2013-03-16 20:40:00,44.2,40.0,29.78,NE,49,5.0,7.0,85,0.00,,,0.01,Wunderground v.1.15,2013-03-17 00:40:00,
2013-03-16 20:45:00,44.2,40.0,29.77,NNE,15,4.0,10.0,85,0.00,,,0.01,Wunderground v.1.15,2013-03-17 00:45:00,
2013-03-16 20:50:00,44.2,40.0,29.78,NE,35,1.0,4.0,85,0.00,,,0.01,Wunderground v.1.15,2013-03-17 00:50:00,
2013-03-16 20:55:00,44.1,39.9,29.78,NNE,31,3.0,8.0,85,0.00,,,0.01,Wunderground v.1.15,2013-03-17 00:55:00,
2013-03-16 21:00:00,43.8,39.9,29.78,NE,36,4.0,5.0,86,0.00,,,0.01,Wunderground v.1.15,2013-03-17 01:00:00,
2013-03-16 21:05:00,43.6,39.7,29.79,North,355,2.0,6.0,86,0.00,,,0.01,Wunderground v.1.15,2013-03-17 01:05:00,
2013-03-16 21:10:00,43.2,39.3,29.80,NNE,26,3.0,3.0,86,0.00,,,0.01,Wunderground v.1.15,2013-03-17 01:10:00,
2013-03-16 21:15:00,42.9,39.0,29.81,NNW,332,7.0,7.0,86,0.00,,,0.01,Wunderground v.1.15,2013-03-17 01:15:00,
2013-03-16 21:20:00,42.7,39.1,29.81,NNE,23,3.0,5.0,87,0.00,,,0.01,Wunderground v.1.15,2013-03-17 01:20:00,
2013-03-16 21:25:00,42.4,38.8,29.81,NNW,342,6.0,7.0,87,0.00,,,0.01,Wunderground v.1.15,2013-03-17 01:25:00,
2013-03-16 21:30:00,42.2,38.9,29.82,NNE,30,3.0,4.0,88,0.00,,,0.01,Wunderground v.1.15,2013-03-17 01:30:00,
2013-03-16 21:35:00,41.9,38.6,29.82,NNE,32,2.0,6.0,88,0.00,,,0.01,Wunderground v.1.15,2013-03-17 01:35:00,
2013-03-16 21:40:00,41.6,38.3,29.83,NE,46,1.0,3.0,88,0.00,,,0.01,Wunderground v.1.15,2013-03-17 01:40:00,
2013-03-16 21:45:00,41.4,38.4,29.84,NE,37,2.0,13.0,89,0.00,,,0.01,Wunderground v.1.15,2013-03-17 01:45:00,
2013-03-16 21:50:00,41.2,38.2,29.83,NNE,25,4.0,4.0,89,0.00,,,0.01,Wunderground v.1.15,2013-03-17 01:50:00,
2013-03-16 21:55:00,41.1,38.1,29.84,NNE,21,2.0,6.0,89,0.00,,,0.01,Wunderground v.1.15,2013-03-17 01:55:00,
2013-03-16 22:00:00,41.1,38.4,29.84,North,360,6.0,7.0,90,0.00,,,0.01,Wunderground v.1.15,2013-03-17 02:00:00,
2013-03-16 22:05:00,41.0,38.3,29.85,NNE,14,3.0,7.0,90,0.00,,,0.01,Wunderground v.1.15,2013-03-17 02:05:00,
2013-03-16 22:10:00,40.9,38.2,29.85,North,355,6.0,8.0,90,0.00,,,0.01,Wunderground v.1.15,2013-03-17 02:10:00,
2013-03-16 22:15:00,40.7,38.0,29.86,NE,49,7.0,9.0,90,0.00,,,0.01,Wunderground v.1.15,2013-03-17 02:15:00,
2013-03-16 22:20:00,40.5,37.8,29.86,NNE,32,7.0,7.0,90,0.00,,,0.01,Wunderground v.1.15,2013-03-17 02:20:00,
2013-03-16 22:25:00,40.2,37.5,29.86,NNW,346,1.0,13.0,90,0.00,,,0.01,Wunderground v.1.15,2013-03-17 02:25:00,
2013-03-16 22:30:00,40.1,37.4,29.87,NE,37,6.0,9.0,90,0.00,,,0.01,Wunderground v.1.15,2013-03-17 02:30:00,
2013-03-16 22:35:00,40.0,37.3,29.87,North,9,10.0,11.0,90,0.00,,,0.01,Wunderground v.1.15,2013-03-17 02:35:00,
2013-03-16 22:40:00,39.9,37.2,29.87,NNE,19,4.0,6.0,90,0.00,,,0.01,Wunderground v.1.15,2013-03-17 02:40:00,
2013-03-16 22:45:00,39.8,37.4,29.88,NNE,30,3.0,7.0,91,0.00,,,0.01,Wunderground v.1.15,2013-03-17 02:45:00,
2013-03-16 22:50:00,39.7,37.3,29.88,NNE,18,4.0,5.0,91,0.00,,,0.01,Wunderground v.1.15,2013-03-17 02:50:00,
2013-03-16 22:55:00,39.6,37.2,29.88,North,350,6.0,7.0,91,0.00,,,0.01,Wunderground v.1.15,2013-03-17 02:55:00,
2013-03-16 23:00:00,39.5,37.1,29.88,NE,44,2.0,3.0,91,0.00,,,0.01,Wunderground v.1.15,2013-03-17 03:00:00,
2013-03-16 23:06:00,39.4,37.0,29.88,NNE,32,2.0,5.0,91,0.00,,,0.01,Wunderground v.1.15,2013-03-17 03:06:00,
2013-03-16 23:11:00,39.3,36.9,29.88,North,360,3.0,7.0,91,0.00,,,0.01,Wunderground v.1.15,2013-03-17 03:11:00,
2013-03-16 23:16:00,39.2,36.8,29.88,NNE,31,2.0,7.0,91,0.00,,,0.01,Wunderground v.1.15,2013-03-17 03:16:00,
2013-03-16 23:21:00,39.1,36.7,29.89,NNE,31,2.0,5.0,91,0.00,,,0.01,Wunderground v.1.15,2013-03-17 03:21:00,
2013-03-16 23:26:00,39.1,36.7,29.89,NE,49,2.0,6.0,91,0.00,,,0.01,Wunderground v.1.15,2013-03-17 03:26:00,
2013-03-16 23:32:00,39.0,36.6,29.89,NE,48,3.0,5.0,91,0.00,,,0.01,Wunderground v.1.15,2013-03-17 03:32:00,
2013-03-16 23:37:00,38.9,36.5,29.89,NE,45,0.0,7.0,91,0.00,,,0.01,Wunderground v.1.15,2013-03-17 03:37:00,
2013-03-16 23:42:00,38.9,36.8,29.89,NE,50,2.0,6.0,92,0.00,,,0.01,Wunderground v.1.15,2013-03-17 03:42:00,
2013-03-16 23:47:00,38.8,36.7,29.90,NE,49,2.0,6.0,92,0.00,,,0.01,Wunderground v.1.15,2013-03-17 03:47:00,
2013-03-16 23:52:00,38.7,36.6,29.89,NE,38,0.0,3.0,92,0.00,,,0.01,Wunderground v.1.15,2013-03-17 03:52:00,
2013-03-16 23:57:00,38.7,36.6,29.89,NE,51,2.0,5.0,92,0.00,,,0.01,Wunderground v.1.15,2013-03-17 03:57:00,